Torna al catalogo

STARLINK-6091

AttivoComunicazioniVLEO
NORAD 56119·PAYLOAD·🇺🇸 United States

Lanciato Mar 29, 2023 da Cape Canaveral Space Force Station

Loading…

Prossimi Passaggi (prossime 24 ore)

TLE

AggiornatoSource: CelesTrak SupGP

Epoca: Sep 15, 2026, 03:10 UTC

1 56119C 23046AC  26258.13243056  .00051790  00000+0  18761-2 0  2588
2 56119  43.0017 157.4321 0000824 249.9570 314.5121 15.27549476    10

Traccia STARLINK-6091 in tempo reale con AllMySat

Download on the App Store